This is the latest recevied weather packets stored in our database for station/object KF4WSW-13. If no packets are shown the sender has not sent any weather packets the latest 10 day(s).
| Time | Temp. | Humidity | Pressure | Rain* | Wind** | Luminosity | Snow |
|---|---|---|---|---|---|---|---|
| 1777237909 | 25.56° C | 76% | 1009.8 hPa | 0 mm | - | 151 W/m² | - |
| 1777237605 | 25.56° C | 76% | 1009.9 hPa | 0 mm | - | 148 W/m² | - |
| 1777237303 | 25.56° C | 76% | 1009.8 hPa | 0 mm | - | 194 W/m² | - |
| 1777237000 | 25.56° C | 77% | 1009.7 hPa | 0 mm | - | 230 W/m² | - |
| 1777236697 | 25.56° C | 77% | 1009.9 hPa | 0 mm | - | 318 W/m² | - |
| 1777236392 | 25.56° C | 76% | 1010 hPa | 0 mm | - | 450 W/m² | - |
| 1777236088 | 25.56° C | 76% | 1010.1 hPa | 0 mm | - | 466 W/m² | - |
| 1777235785 | 25.56° C | 76% | 1010.1 hPa | 0 mm | - | 480 W/m² | - |
| 1777235482 | 25.56° C | 77% | 1010 hPa | 0 mm | - | 494 W/m² | - |
| 1777235178 | 25.56° C | 76% | 1010.1 hPa | 0 mm | - | 508 W/m² | - |
| 1777234875 | 25.56° C | 76% | 1010.2 hPa | 0 mm | - | 525 W/m² | - |
| 1777234570 | 25° C | 78% | 1010.1 hPa | 0 mm | - | 536 W/m² | - |
| 1777234270 | 25° C | 78% | 1010.1 hPa | 0 mm | - | 548 W/m² | - |
| 1777233967 | 25.56° C | 75% | 1010.3 hPa | 0 mm | - | 561 W/m² | - |
| 1777233663 | 25.56° C | 77% | 1010.1 hPa | 0 mm | - | 573 W/m² | - |
| 1777233362 | 25.56° C | 76% | 1010.1 hPa | 0 mm | - | 586 W/m² | - |
| 1777233057 | 26.11° C | 76% | 1010.1 hPa | 0 mm | - | 600 W/m² | - |
| 1777232755 | 26.11° C | 75% | 1010.3 hPa | 0 mm | - | 611 W/m² | - |
| 1777232453 | 25.56° C | 76% | 1010.2 hPa | 0 mm | - | 624 W/m² | - |
| 1777232150 | 26.11° C | 75% | 1010.3 hPa | 0 mm | - | 631 W/m² | - |
| 1777231847 | 26.11° C | 74% | 1010.2 hPa | 0 mm | - | 647 W/m² | - |
| 1777231544 | 25.56° C | 76% | 1010.4 hPa | 0 mm | - | 654 W/m² | - |
| 1777231240 | 26.11° C | 74% | 1010.3 hPa | 0 mm | - | 662 W/m² | - |
| 1777230936 | 26.11° C | 74% | 1010.4 hPa | 0 mm | - | 676 W/m² | - |
| 1777230632 | 26.11° C | 75% | 1010.6 hPa | 0 mm | - | 692 W/m² | - |
* Rain latest hour (hover to see other rain measurements)
** Current wind speed in m/s (hover to see current wind gust speed)